Helicity
27 33 37 32 35 34 46 39 36 45 50 42 53 62 52 15 21 -52 -5 9 -12 -22 24 69 60 105 91 153 116 118 -19 25 6 44 99 22 32 41 78 58 99 67 19 150 63
21 32 31 36 36 47 52 44 38 47 35 41 56 68 22 -31 -57 73 4 2 14 0 17 -37 -44 -24 -13 -9 -18 -15 -20 124 70 47 77 -22 48 9 -27 8 9 15 68 102 43
24 25 31 38 43 51 49 39 34 42 34 47 74 61 8 4 -1 39 -7 10 9 5 74 93 -26 -33 -54 -7 -26 32 97 86 86 37 14 17 38 -14 -17 -28 -54 50 69 84 60
24 30 29 33 57 55 43 39 36 50 48 69 88 40 38 -8 45 20 41 74 36 59 162 3 -40 -24 -14 -10 26 36 11 39 85 97 45 -13 13 25 7 96 42 79 74 104 61
28 24 -14 57 63 62 48 52 52 46 62 91 92 27 5 37 22 14 103 103 56 92 114 63 -2 -13 -6 22 17 42 34 44 19 38 53 48 10 9 27 73 37 47 60 85 55
22 17 38 58 67 72 59 59 49 60 69 104 69 60 8 161 -14 23 92 141 35 36 6 41 44 48 15 -11 13 8 -2 -9 -18 -5 1 5 -2 12 32 51 24 47 34 61 58
42 53 57 56 73 64 65 54 56 54 81 95 66 60 65 46 13 38 52 40 41 74 62 23 62 49 48 38 23 6 -8 -9 -15 -17 -28 7 -15 -3 72 32 29 45 2 34 50
60 62 58 62 80 60 65 54 56 75 83 70 69 53 52 -28 30 48 29 6 9 34 19 19 63 84 33 22 21 13 9 -29 -47 -53 -9 -13 20 54 83 58 21 32 53 -15 59
68 73 76 80 75 70 65 75 89 89 71 59 35 49 32 -10 37 -7 46 27 -1 21 33 44 85 22 32 34 5 1 22 10 -23 -38 29 12 43 80 103 43 4 -4 52 51 -21
78 87 85 92 89 80 70 74 63 71 57 64 88 115 30 14 9 32 7 55 58 43 66 76 66 19 20 24 10 39 -8 63 26 58 6 7 -45 122 74 40 28 4 6 65 26
81 64 109 93 83 70 53 63 81 76 121 90 2 38 8 20 44 57 33 32 85 69 93 28 72 -4 96 112 92 128 118 33 44 91 35 3 7 123 62 23 53 81 79 140 214
100 103 108 108 73 47 58 123 31 84 30 48 31 20 37 78 24 23 40 61 34 83 21 24 24 81 72 61 57 66 81 28 68 69 13 15 12 152 107 149 110 177 255 286 295
91 93 91 82 46 54 105 78 80 85 47 32 54 22 40 107 40 6 46 65 33 57 12 47 138 39 61 32 50 16 60 99 74 46 14 -5 18 208 191 125 201 278 234 149 140
101 115 89 47 70 70 94 64 33 50 76 38 55 20 22 15 2 16 13 49 40 5 9 83 47 31 33 44 58 81 88 45 22 22 15 100 8 208 189 184 201 263 235 195 185
96 99 62 78 149 60 29 32 34 38 87 21 14 7 -7 37 16 6 -21 19 13 8 28 28 15 30 23 76 53 109 44 35 29 29 29 14 59 117 203 202 241 251 245 235 238
85 84 60 78 97 43 35 45 43 107 60 13 2 2 12 9 23 16 4 26 26 15 54 69 57 70 75 29 31 30 20 16 16 16 42 -7 -19 196 88 135 280 225 181 184 144
57 68 82 110 60 45 79 79 118 105 -4 12 18 -1 33 37 30 16 22 47 55 22 17 13 42 35 21 10 35 -2 20 36 56 36 50 76 81 110 241 230 202 289 162 116 116
65 78 78 58 64 63 94 101 134 63 33 34 39 48 35 35 38 24 19 33 68 90 18 26 31 10 13 18 4 6 4 30 43 58 60 25 49 194 223 277 230 175 141 105 94
65 41 39 44 85 77 119 89 69 42 55 30 43 47 56 31 19 40 107 58 66 109 88 34 35 33 25 10 11 21 47 39 42 60 54 34 118 188 165 128 73 88 74 164 96
56 53 24 42 67 89 110 99 57 131 40 37 36 12 52 35 20 18 22 33 23 76 86 22 18 5 15 16 12 11 21 38 73 74 82 34 57 90 69 75 40 36 42 170 114
80 72 40 48 75 89 69 68 43 54 77 39 31 39 47 39 17 33 32 23 51 35 46 40 -6 22 11 8 7 25 48 62 58 87 132 100 98 86 109 39 65 108 81 161 233
83 115 43 64 85 52 71 67 84 45 85 115 110 59 54 30 37 42 43 54 40 49 27 15 -1 10 51 40 27 30 47 54 112 99 148 185 155 59 97 122 152 118 116 129 115
96 35 46 104 102 46 112 92 65 47 55 50 60 74 75 44 46 47 44 47 49 48 21 20 19 10 93 68 54 56 107 109 138 242 145 147 124 28 152 139 92 40 35 21 27
95 50 95 72 168 -26 72 54 94 134 91 79 60 42 39 46 46 31 47 36 47 46 32 36 38 30 55 56 74 93 115 110 125 242 193 143 43 -6 17 76 49 79 122 155 108
91 45 72 87 135 100 27 34 57 63 45 41 35 31 37 55 36 33 52 39 18 27 35 57 50 50 40 35 55 92 116 129 98 76 121 83 43 24 77 47 116 238 331 270 204
166 76 90 72 49 64 106 88 26 48 32 31 45 37 42 46 48 37 32 12 22 40 56 68 79 77 60 44 78 59 58 74 100 109 67 108 88 67 57 159 221 203 146 169 193
69 76 87 109 105 104 72 60 34 107 75 67 62 88 177 202 199 213 177 151 96 56 70 91 94 97 90 102 63 87 106 136 83 57 92 98 47 85 194 242 182 139 131 101 126
Wind_Speed
65 62 54 52 59 58 57 56 55 54 53 51 49 48 47 47 46 29 35 29 27 28 35 41 37 42 36 47 44 44 19 10 15 11 18 18 22 28 28 28 23 25 13 41 45
66 57 55 57 54 57 57 53 52 52 49 48 47 45 43 41 39 46 31 30 34 38 30 18 15 28 19 8 24 31 38 13 25 25 17 16 21 23 21 23 14 21 19 28 44
61 58 57 56 53 59 55 51 51 50 46 45 45 42 39 36 35 18 25 28 30 35 41 41 13 18 14 15 26 37 18 18 21 26 20 17 19 20 26 41 36 35 37 40 41
63 61 53 51 58 57 53 52 50 48 47 45 43 40 38 30 26 21 26 30 33 42 41 22 22 15 15 19 29 27 27 21 17 20 17 17 18 32 27 9 17 27 35 34 32
59 54 31 55 55 54 50 51 49 48 46 43 42 36 32 34 26 22 30 31 38 36 38 43 31 29 15 18 20 22 19 14 11 28 25 26 30 31 24 20 27 25 28 26 24
50 45 47 53 54 53 50 50 49 46 44 42 40 38 39 39 30 31 30 33 30 39 32 31 30 31 21 16 18 15 13 17 29 29 29 36 31 39 22 23 28 23 23 23 23
51 53 53 52 54 54 52 51 47 45 43 43 42 41 42 34 34 33 37 34 31 29 29 29 30 37 26 29 29 32 33 33 35 30 30 38 46 46 18 20 19 17 18 18 19
49 50 52 54 55 53 51 48 47 45 44 43 45 44 39 34 36 42 36 42 36 33 27 32 37 37 31 22 34 38 40 40 33 33 34 36 43 26 18 16 13 14 14 13 13
46 49 52 53 54 50 48 46 46 44 45 43 44 46 39 35 43 36 41 36 37 36 32 34 37 34 29 36 35 40 44 23 30 34 33 12 29 20 24 28 10 6 8 13 10
41 43 45 50 51 50 45 43 41 41 44 44 45 45 39 40 34 36 37 37 39 39 37 36 35 32 39 45 38 43 40 32 31 22 24 27 16 29 36 27 18 10 12 11 13
37 28 47 51 51 49 42 39 43 46 57 37 55 35 35 29 34 38 33 38 39 43 42 41 41 37 25 29 31 32 31 34 21 30 38 22 32 31 35 27 27 24 20 22 27
37 42 48 49 47 46 44 43 32 34 46 35 32 32 32 33 34 31 34 41 41 45 40 35 31 27 32 35 36 34 35 36 33 33 37 34 22 24 27 31 29 26 25 25 26
32 39 49 50 48 47 50 32 33 29 40 40 33 32 34 35 28 32 38 42 44 40 38 26 24 30 30 30 36 27 35 36 38 45 32 36 27 16 20 21 25 29 30 27 25
35 42 46 47 46 50 44 34 32 29 43 41 43 33 40 36 31 33 37 34 36 13 20 26 29 29 28 30 37 39 35 41 46 47 47 7 38 5 9 15 21 27 28 27 26
41 43 50 55 39 52 37 35 33 32 40 44 35 32 37 35 24 25 33 32 22 21 28 23 24 29 32 35 41 40 47 48 46 46 46 28 29 17 2 9 17 25 28 28 30
40 39 45 45 44 36 35 36 36 37 34 40 38 26 28 25 23 26 26 26 27 24 26 26 29 34 38 39 37 46 46 43 34 37 40 36 27 11 8 8 14 22 29 28 27
41 40 42 39 43 36 37 42 43 36 37 19 24 32 24 25 27 25 25 24 30 22 21 24 30 32 40 44 25 40 47 46 34 26 37 42 30 28 21 18 12 20 25 26 28
44 41 37 35 36 38 43 51 44 28 24 14 18 19 22 25 26 25 26 26 30 34 23 24 26 37 38 38 38 40 41 41 42 45 49 29 43 25 18 18 20 22 23 27 31
43 42 44 39 38 40 51 55 31 33 17 15 18 21 22 22 24 23 26 28 31 32 31 27 29 32 35 39 42 43 39 39 36 36 40 35 34 27 22 24 23 24 28 32 38
47 48 46 40 38 46 51 52 32 29 24 16 20 10 21 20 20 22 15 29 26 27 29 27 28 32 35 31 34 42 37 38 34 41 43 43 48 35 23 26 28 34 33 36 43
47 51 41 38 38 55 56 46 34 32 36 20 29 19 28 17 24 20 23 22 26 26 27 29 29 32 31 41 43 40 40 40 35 34 37 45 35 45 45 36 42 37 40 44 51
46 52 39 36 53 61 57 44 34 13 29 29 31 28 25 25 29 25 20 24 24 28 27 30 31 31 36 38 39 39 41 39 41 40 42 41 30 54 41 45 50 52 54 53 51
48 41 37 42 57 62 38 27 20 12 18 20 25 27 27 24 26 19 21 23 26 27 26 31 31 33 27 33 36 44 42 43 37 39 43 42 38 33 41 61 57 53 51 50 42
46 42 40 52 53 37 26 10 17 27 22 27 21 22 20 19 22 18 20 21 25 25 28 30 31 32 33 38 45 45 44 41 35 40 39 32 36 45 58 57 48 52 52 53 56
42 42 42 56 54 37 5 8 8 25 28 19 29 25 17 20 17 18 20 21 21 23 26 31 28 34 34 36 40 45 47 43 40 35 34 36 33 50 51 49 55 57 64 65 68
43 38 39 34 36 35 21 23 4 15 19 30 32 21 11 14 19 14 17 18 20 22 24 30 31 37 36 34 46 52 45 39 45 49 34 39 43 53 51 50 58 66 67 72 72
37 36 39 38 34 32 23 32 14 14 36 34 21 10 15 20 24 25 26 27 25 25 23 31 34 39 39 51 59 52 48 54 46 42 38 42 40 48 54 61 67 70 72 73 74
Wind_Direction
297 298 304 301 282 277 271 270 269 267 265 268 268 274 274 277 270 306 287 305 301 294 258 225 239 214 225 203 202 229 334 18 360 21 3 14 6 344 329 2 310 249 210 94 106
292 304 300 287 283 272 266 270 269 260 264 262 263 263 273 281 275 256 287 273 248 230 248 61 43 107 98 32 315 318 304 8 6 14 20 27 29 22 31 18 291 237 35 71 112
298 292 284 276 279 252 263 267 261 255 257 256 251 258 265 268 271 335 264 243 239 219 208 227 16 84 337 335 319 343 9 13 356 352 43 20 1 270 239 199 194 119 102 109 120
273 272 286 282 252 244 253 250 247 242 236 237 244 248 251 266 266 290 237 223 204 189 201 269 84 73 334 320 310 344 357 10 358 290 296 298 255 223 235 308 288 76 114 110 115
276 280 309 257 241 244 247 237 232 231 233 236 236 249 252 243 268 253 238 227 200 206 196 190 239 277 336 339 337 351 1 341 302 237 249 243 233 240 260 304 260 49 86 95 99
290 287 273 253 236 235 232 225 224 228 231 235 238 238 230 234 244 243 245 238 237 224 243 248 274 263 298 297 311 277 266 247 223 230 241 225 252 225 270 51 96 58 85 90 98
258 246 244 240 227 213 214 213 220 224 226 225 227 222 216 237 221 235 222 228 225 242 242 235 226 205 226 223 222 218 214 222 224 242 251 230 214 196 62 28 65 78 96 105 91
230 216 213 211 205 207 208 213 211 212 213 212 210 206 208 221 225 203 214 199 209 208 215 203 201 204 221 247 221 213 217 215 235 250 256 257 220 130 53 56 64 94 70 102 79
222 210 204 202 200 204 205 207 205 206 201 199 194 190 197 199 185 206 200 201 206 203 212 203 193 209 228 210 209 219 207 235 272 267 284 157 297 39 358 344 132 63 53 57 62
226 219 212 202 199 198 204 202 203 202 198 200 208 194 197 192 207 208 205 205 190 192 190 195 199 217 213 211 238 248 225 281 278 350 346 284 6 355 338 349 8 31 30 71 50
221 237 204 197 196 196 198 195 188 187 183 200 180 197 194 210 202 197 214 202 200 184 195 195 204 228 269 279 280 275 287 291 354 340 322 342 317 343 340 5 10 12 4 10 11
211 203 198 198 198 198 200 200 210 203 187 201 201 208 208 211 199 215 214 190 192 175 182 204 208 304 292 301 297 301 308 313 334 346 329 322 335 352 354 358 11 20 16 11 9
223 212 199 198 200 202 199 215 209 214 189 190 202 202 203 205 218 220 208 201 180 184 158 315 319 325 314 332 309 333 315 328 323 321 339 320 321 343 7 16 13 17 22 26 19
215 203 199 197 200 201 204 213 212 217 187 193 192 207 189 194 217 202 194 220 224 336 354 334 316 328 334 337 319 311 336 325 319 316 315 56 328 303 359 11 18 17 12 13 12
206 204 199 198 211 200 214 217 217 217 194 197 214 214 199 207 59 337 109 149 312 351 325 5 357 341 334 326 320 323 317 316 320 319 318 324 328 306 126 345 358 11 5 360 359
208 208 205 212 212 215 220 218 216 207 215 207 207 155 82 56 337 36 35 343 340 11 355 351 346 336 329 330 336 323 325 325 329 325 319 320 317 353 322 324 7 12 6 6 2
210 211 212 222 211 221 217 206 203 217 208 255 83 102 42 18 26 46 27 359 315 20 37 23 352 1 341 333 23 346 330 327 330 333 332 339 334 326 352 13 358 354 356 359 357
215 219 223 224 227 222 213 200 212 247 255 354 49 40 36 35 17 14 50 8 327 270 11 92 40 335 0 1 353 358 348 344 333 328 325 348 329 338 358 357 355 359 359 352 349
219 221 221 229 229 225 208 205 252 246 313 14 55 73 43 28 11 1 342 330 314 304 301 336 15 25 11 360 359 358 4 1 354 350 343 344 348 355 1 352 355 356 347 344 342
218 218 221 233 235 221 215 217 261 268 305 57 70 46 60 54 41 101 21 300 337 304 279 346 42 24 26 55 43 24 23 17 14 355 344 340 338 351 350 343 339 335 334 339 338
220 216 231 235 236 214 218 237 271 274 257 259 246 356 297 359 275 331 328 356 290 323 326 328 31 43 51 17 10 21 17 16 16 8 356 343 349 352 342 344 339 344 339 340 336
221 218 235 235 217 211 218 250 275 10 289 291 295 292 289 282 261 287 32 327 327 311 351 348 17 31 19 26 24 21 18 16 6 359 350 343 330 327 343 342 336 332 334 336 340
219 231 238 230 219 213 255 288 313 358 318 325 316 288 279 280 279 356 6 353 343 338 356 349 19 24 33 26 21 10 13 7 4 358 347 341 343 350 342 330 333 339 337 340 346
230 230 231 229 238 184 276 330 316 304 304 295 318 299 298 317 323 37 26 12 352 1 356 3 12 17 14 6 3 0 0 359 353 344 341 336 335 336 326 340 346 342 345 344 341
241 236 234 232 237 261 286 348 349 290 292 312 282 288 316 322 24 32 42 32 18 7 8 1 12 3 5 5 3 359 355 352 345 341 332 337 336 338 342 339 339 347 342 342 341
244 245 242 255 251 262 282 293 6 312 296 273 276 297 354 1 358 38 33 26 12 12 7 4 1 358 358 6 357 349 351 2 1 354 349 353 345 340 340 350 340 338 340 338 340
256 259 250 255 259 264 284 281 301 306 274 275 293 322 334 340 343 346 346 344 357 3 6 356 356 355 354 350 349 356 5 357 356 358 357 348 352 351 344 340 337 339 340 340 341